Hourly Data Report for October 26, 2016

All times are specified in Local Standard Time (LST). Add 1 hour to adjust for Daylight Saving Time where and when it is observed.

PANGNIRTUNG
NUNAVUT

66°08'36.300" N
65°42'40.500" W
22.60 m
2403049
71826
WXP

Download Data

Hourly Data (October 2016)
Hourly Data Report for October 26, 2016
Temp Definition
°C
Dew Point Temp Definition
°C
Rel Hum Definition
%
Wind Dir Definition
10's deg

Wind Spd Definition
km/h
Visibility Definition
km
Stn Press Definition
kPa
Hmdx Definition


Wind Chill Definition


Weather Definition


TIME
00:00 -11.6 -13.5 86 33 3   101.48   -13 LegendNANA
01:00 -12.5 -14.7 84 15 3   101.50   -14 LegendNANA
02:00 -12.3 -14.4 85 5 7   101.51   -17 LegendNANA
03:00 -12.7 -14.6 86 23 4   101.51   -15 LegendNANA
04:00 -12.6 -14.0 89 30 4   101.51   -15 LegendNANA
05:00 -12.0 -14.1 84 23 3   101.52   -14 LegendNANA
06:00 -12.5 -14.3 86 0 1   101.52   -13 LegendNANA
07:00 -12.0 -14.1 84 23 3   101.55   -14 LegendNANA
08:00 -11.8 -13.7 86 25 5   101.52   -15 LegendNANA
09:00 -12.9 -15.0 85 8 2   101.50   -14 LegendNANA
10:00 -12.3 -14.7 82 20 2   101.47   -14 LegendNANA
11:00 -11.4 -13.8 83 14 4   101.46   -14 LegendNANA
12:00 -12.0 -14.9 79 15 4   101.42   -15 LegendNANA
13:00 -12.0 -15.0 78 19 2   101.40   -13 LegendNANA
14:00 -11.6 -14.1 82 17 2   101.37   -13 LegendNANA
15:00 -11.7 -15.2 75 11 10   101.30   -17 LegendNANA
16:00 -11.1 -14.9 73 13 5   101.25   -14 LegendNANA
17:00 -10.7 -13.5 80 10 3   101.22   -13 LegendNANA
18:00 -10.7 -13.7 79 24 4   101.19   -13 LegendNANA
19:00 -11.5 -15.0 75 9 7   101.15   -16 LegendNANA
20:00 -10.1 -13.6 76 12 4   101.14   -12 LegendNANA
21:00 -11.0 -14.5 75 9 15   101.10   -18 LegendNANA
22:00 -10.8 -14.0 77 27 3   101.07   -13 LegendNANA
23:00 -9.5 -13.1 75 9 13   101.03   -16 LegendNANA

Notes on Data Quality.

Legend

  • E = Estimated
  • M = Missing
  • NA = Not Available
  • ‡ = Partner data that is not subject to review by the National Climate Archives
Date modified: